TimeMST,TemperatureF,Dew PointF,Humidity,Sea Level PressureIn,VisibilityMPH,Wind Direction,Wind SpeedMPH,Gust SpeedMPH,PrecipitationIn,Events,Conditions,WindDirDegrees,DateUTC
12:53 AM,34.0,25.0,70,29.74,10.0,Calm,Calm,-,N/A,,Clear,0,2013-01-28 07:53:00
1:53 AM,30.9,24.1,76,29.74,10.0,WSW,6.9,-,N/A,,Partly Cloudy,250,2013-01-28 08:53:00
2:53 AM,30.9,24.1,76,29.72,10.0,WSW,6.9,-,N/A,,Clear,250,2013-01-28 09:53:00
3:53 AM,28.9,23.0,78,29.73,10.0,West,9.2,-,N/A,,Clear,270,2013-01-28 10:53:00
4:53 AM,33.1,25.0,72,29.70,10.0,South,3.5,-,N/A,,Clear,190,2013-01-28 11:53:00
5:53 AM,32.0,25.0,75,29.72,10.0,WSW,4.6,-,N/A,,Clear,250,2013-01-28 12:53:00
6:53 AM,30.9,25.0,79,29.75,10.0,SW,6.9,-,N/A,,Clear,220,2013-01-28 13:53:00
7:53 AM,35.1,28.0,76,29.75,10.0,WSW,3.5,-,N/A,,Clear,250,2013-01-28 14:53:00
8:53 AM,37.9,30.0,73,29.72,10.0,South,6.9,-,N/A,,Partly Cloudy,190,2013-01-28 15:53:00
9:53 AM,42.1,30.9,65,29.70,10.0,SW,6.9,-,N/A,,Clear,230,2013-01-28 16:53:00
10:53 AM,53.1,28.9,40,29.62,10.0,SSW,26.5,33.4,N/A,,Scattered Clouds,200,2013-01-28 17:53:00
11:53 AM,54.0,30.0,40,29.57,10.0,South,27.6,34.5,N/A,,Mostly Cloudy,180,2013-01-28 18:53:00
12:38 PM,57.2,21.2,25,29.66,10.0,WSW,29.9,39.1,N/A,,Scattered Clouds,240,2013-01-28 19:38:00
12:53 PM,57.0,23.0,27,29.53,10.0,WSW,28.8,36.8,N/A,,Clear,240,2013-01-28 19:53:00
1:53 PM,55.9,19.9,25,29.54,10.0,SW,32.2,41.4,N/A,,Clear,220,2013-01-28 20:53:00
2:53 PM,54.0,21.0,28,29.54,10.0,SW,35.7,47.2,N/A,,Clear,230,2013-01-28 21:53:00
3:53 PM,51.1,23.0,33,29.57,10.0,WSW,31.1,40.3,N/A,,Overcast,240,2013-01-28 22:53:00
4:53 PM,48.9,21.0,33,29.58,10.0,WSW,27.6,40.3,N/A,,Overcast,250,2013-01-28 23:53:00
5:09 PM,44.6,26.6,49,29.67,10.0,WNW,19.6,25.3,N/A,,Overcast,290,2013-01-29 00:09:00
5:53 PM,44.1,27.0,51,29.62,10.0,West,16.1,25.3,N/A,,Overcast,260,2013-01-29 00:53:00
6:53 PM,37.9,27.0,65,29.68,10.0,WSW,8.1,-,N/A,,Mostly Cloudy,250,2013-01-29 01:53:00
7:53 PM,41.0,25.0,53,29.65,10.0,WSW,17.3,24.2,N/A,,Overcast,250,2013-01-29 02:53:00
8:53 PM,39.0,24.1,55,29.65,10.0,West,11.5,23.0,N/A,,Overcast,260,2013-01-29 03:53:00
9:53 PM,39.0,21.0,49,29.63,10.0,West,19.6,25.3,N/A,,Overcast,270,2013-01-29 04:53:00
10:53 PM,36.0,23.0,59,29.59,10.0,South,6.9,-,N/A,,Overcast,190,2013-01-29 05:53:00
11:53 PM,35.1,24.1,64,29.58,10.0,SW,3.5,-,N/A,,Overcast,220,2013-01-29 06:53:00